User: anonymous   Login
Location: Unspecified
(0.0000°N, 0.0000°E)
Time: 08:51:09
(UTC+00:00)
Language:

SO-67 - Orbit

View from above orbital plane
View from above orbital plane
View from above satellite
View from above satellite

Ground track
Ground track

The orbit data is extracted from the following two-line orbital elements,

1 35870U 09049F   16043.89891289  .00012765  00000-0  25803-3 0  9995
2 35870  97.1257  60.6318 0003242  80.0444 327.6426 15.46594895357260
Epoch (UTC): 12 February 2016 21:34:26
Eccentricity: 0.0003242
inclination: 97.1257°
perigee height: 424 km
apogee height: 429 km
right ascension of ascending node: 60.6318°
argument of perigee: 80.0444°
revolutions per day: 15.46594895
mean anomaly at epoch: 327.6426°
orbit number at epoch: 35726

The dashed part of the orbit path shows where the satellite is in the earth's shadow,  

DLR